Regional Weather Roundup
Issued by NWS

Home | Current Version | Previous Version | Graphics & Text | Print | Product List | Glossary On
Versions: 1 2 3 4 5 6 7 8 9 10 11 12 13 14 15 16 17 18 19 20 21 22 23 24 25 26 27 28 29 30 31 32 33 34 35 36 37 38 39 40 41 42 43 44 45 46 47 48 49 50
000
ASUS43 KTOP 260708
RWRKS

WEATHER ROUNDUP FOR KANSAS
NATIONAL WEATHER SERVICE GOODLAND KS
200 AM CDT WED APR 26 2017

NOTE:  "FAIR" INDICATES FEW OR NO CLOUDS BELOW 12,000 FEET WITH NO
SIGNIFICANT WEATHER AND/OR OBSTRUCTIONS TO VISIBILITY.

KSZ001>006-013>018-027>032-041>047-260800-
NORTHWEST KANSAS

CITY           SKY/WX    TMP DP  RH WIND       PRES   REMARKS
GOODLAND       CLOUDY    37  33  85 N18G28    29.76R WCI  27
HAYS           CLOUDY    40  35  83 N24       29.69R WCI  29
HILL CITY      CLOUDY    40  33  76 N23G31    29.73S WCI  30
RUSSELL        CLOUDY    41  35  79 N21G26    29.67R
$$

KSZ061>065-074>080-084>089-260800-
SOUTHWEST KANSAS

CITY           SKY/WX    TMP DP  RH WIND       PRES   REMARKS
DODGE CITY     CLOUDY    42  38  85 N21G28    29.68R
ELKHART          N/A    N/A N/A N/A MISG        N/A
GARDEN CITY    CLOUDY    42  36  79 N26G32    29.67F
GREAT BEND     CLOUDY    42  37  82 N22       29.68R
PRATT          CLOUDY    40  36  84 N18G30    29.66R WCI  31
$$

KSZ066>073-081>083-090>101-260800-
SOUTHEAST KANSAS

CITY           SKY/WX    TMP DP  RH WIND       PRES   REMARKS
CHANUTE        CLOUDY    52  49  89 N13       29.50R
COFFEYVILLE    CLOUDY    56  53  90 NW18      29.47S
HUTCHINSON     CLOUDY    44  39  82 N18G25    29.62R
MEDICINE LODGE   N/A     43  40  89 N22G31    29.61R
NEWTON         CLOUDY    43  40  89 N20G26    29.60R
PARSONS        LGT RAIN  54  52  93 N15G26    29.42F
WICHITA INTL   LGT RAIN  46  42  86 N17       29.59R
WICHITA JABRA  LGT RAIN  44  42  93 N21G28    29.58R
WICHITA MCCONL CLOUDY    46  40  82 N21G30    29.57S
WINFIELD       MOCLDY    48  43  82 N21G31    29.55R
$$

KSZ007>012-019>026-033>040-048>060-102>105-260800-
NORTHEAST KANSAS

CITY           SKY/WX    TMP DP  RH WIND       PRES   REMARKS
CONCORDIA      CLOUDY    41  35  79 N15G23    29.66R
EMPORIA        LGT RAIN  46  45  96 NW15G24   29.56R
LAWRENCE       LGT RAIN  48  46  93 NW13      29.53S
MANHATTAN      CLOUDY    45  38  76 VRB7G18   29.61F
MARYSVILLE     CLOUDY    41  36  81 N17       29.62R
OLATHE IND     LGT RAIN  48  47  96 N20       29.49F
OLATHE EXE     LGT RAIN  49  49 100 N12       29.48F FOG
SALINA         CLOUDY    46  38  73 N17       29.64R
TOPEKA BILLARD CLOUDY    47  45  93 N13       29.54F
TOPEKA FORBES  CLOUDY    48  44  86 N17G23    29.52F
$$




USA.gov is the U.S. government's official web portal to all federal, state and local government web resources and services.